INTELSAT 21 (IS-21)

Last updated on Thu Oct 30 2025 00:02:49 GMT+0000 (Coordinated Universal Time)

1 38749U 12045A 25302.45955097 -.00000275 00000+0 00000+0 0 9992 2 38749 0.0436 69.0554 0002526 159.1608 277.2880 1.00270092 48210
UTC large
Height (km)
Speed (km/s)
/
Latitude / Longitude
Inclination (degrees)
Orbital Period (minutes)
Azimuth
Elevation
Range (km)
Doppler Factor

Next 0 passes for location: London (51.5072 / 0.1276)

Sorry there are no passes over London.